N9AAA Weather Reports


time (UTC)temp
C
wind
direction
speed
KPH
gust
KPH
rain 1hr
cm
rain 24hr
cm
rain mn
cm
humidity
%
barometer
mb
20260906142540 20 221 0.0 3.2 0.00 0.00 0.00 94 1019.9
20260906142041 20 0 0.0 3.2 0.00 0.00 0.00 95 1019.9
20260906141553 20 0 0.0 3.2 0.00 0.00 0.00 96 1019.8
20260906141040 20 70 0.0 6.4 0.00 0.00 0.00 96 1019.8
20260906140541 20 0 1.6 6.4 0.00 0.00 0.00 96 1019.9
20260906140054 20 73 0.0 3.2 0.00 0.00 0.00 96 1019.9
20260906135536 19 0 0.0 3.2 0.00 0.00 0.00 97 1019.8
20260906135040 19 0 0.0 3.2 0.00 0.00 0.00 97 1020.0
20260906134558 18 0 0.0 3.2 0.00 0.00 0.00 97 1019.9
20260906134036 18 0 0.0 3.2 0.00 0.00 0.00 97 1019.9
20260906133541 18 38 0.0 3.2 0.00 0.00 0.00 97 1019.9
20260906133059 18 40 0.0 3.2 0.00 0.00 0.00 97 1020.0
20260906132540 18 0 0.0 3.2 0.00 0.00 0.00 97 1020.1
20260906132036 18 0 0.0 3.2 0.00 0.00 0.00 97 1020.1
20260906131557 18 0 0.0 3.2 0.00 0.00 0.00 97 1020.1
20260906131037 18 352 0.0 3.2 0.00 0.00 0.00 97 1020.0
20260906130536 17 0 0.0 6.4 0.00 0.00 0.00 97 1019.9
20260906130053 17 57 1.6 6.4 0.00 0.00 0.00 97 1020.0
20260906125540 17 0 0.0 4.8 0.00 0.00 0.00 97 1020.0
20260906125040 17 0 0.0 4.8 0.00 0.00 0.00 97 1019.9
20260906124555 17 67 0.0 4.8 0.00 0.00 0.00 97 1019.8
20260906124039 17 0 0.0 3.2 0.00 0.00 0.00 97 1019.7
20260906123538 17 0 0.0 3.2 0.00 0.00 0.00 96 1019.6
20260906123134 17 0 0.0 3.2 0.00 0.00 0.00 97 1019.5
20260906122536 17 0 0.0 6.4 0.00 0.00 0.00 97 1019.5
20260906122036 17 0 0.0 6.4 0.00 0.00 0.00 97 1019.6
20260906121554 17 83 1.6 4.8 0.00 0.00 0.00 97 1019.5
20260906121036 16 78 0.0 3.2 0.00 0.00 0.00 97 1019.4
20260906120537 16 65 0.0 3.2 0.00 0.00 0.00 97 1019.3
20260906120050 16 0 0.0 3.2 0.00 0.00 0.00 97 1019.3
20260906115538 16 0 0.0 3.2 0.00 0.00 0.00 96 1019.3
20260906115037 16 0 0.0 0.0 0.00 0.00 0.00 96 1019.1
20260906114546 16 0 0.0 0.0 0.00 0.00 0.00 96 1018.9
20260906114038 16 0 0.0 0.0 0.00 0.00 0.00 96 1018.9
20260906113535 16 0 0.0 0.0 0.00 0.00 0.00 96 1018.8
20260906113054 16 0 0.0 0.0 0.00 0.00 0.00 96 1018.7
20260906112537 16 0 0.0 0.0 0.00 0.00 0.00 96 1018.7
20260906112036 16 0 0.0 0.0 0.00 0.00 0.00 96 1018.7
20260906111550 16 0 0.0 0.0 0.00 0.00 0.00 96 1018.7
20260906111039 16 0 0.0 0.0 0.00 0.00 0.00 96 1018.7
20260906110540 16 0 0.0 0.0 0.00 0.00 0.00 96 1018.6
20260906110047 17 0 0.0 0.0 0.00 0.00 0.00 96 1018.7
20260906105539 17 0 0.0 1.6 0.00 0.00 0.00 96 1018.7
20260906105036 17 0 0.0 1.6 0.00 0.00 0.00 96 1018.6
20260906104557 17 0 0.0 1.6 0.00 0.00 0.00 96 1018.6
20260906104038 17 0 0.0 1.6 0.00 0.00 0.00 96 1018.6
20260906103536 17 0 0.0 1.6 0.00 0.00 0.00 96 1018.4
20260906103056 17 0 0.0 1.6 0.00 0.00 0.00 96 1018.5
20260906102539 17 59 0.0 3.2 0.00 0.00 0.00 96 1018.6
20260906102039 17 0 0.0 3.2 0.00 0.00 0.00 96 1018.5
20260906101553 17 62 0.0 3.2 0.00 0.00 0.00 96 1018.5
20260906101039 17 0 0.0 3.2 0.00 0.00 0.00 96 1018.5
20260906100544 17 46 0.0 3.2 0.00 0.00 0.00 96 1018.6
20260906100046 17 0 0.0 1.6 0.00 0.00 0.00 96 1018.4
20260906095538 17 71 0.0 1.6 0.00 0.00 0.00 96 1018.5
20260906095039 17 0 0.0 3.2 0.00 0.00 0.00 96 1018.5
20260906094606 17 0 0.0 3.2 0.00 0.00 0.00 96 1018.6
20260906094039 17 0 0.0 3.2 0.00 0.00 0.00 95 1018.6
20260906093540 17 12 0.0 3.2 0.00 0.00 0.00 95 1018.6
20260906093057 17 0 0.0 3.2 0.00 0.00 0.00 95 1018.4
20260906092539 17 0 0.0 3.2 0.00 0.00 0.00 95 1018.3
20260906092039 17 0 0.0 3.2 0.00 0.00 0.00 95 1018.2
20260906091602 17 0 0.0 3.2 0.00 0.00 0.00 95 1018.2
20260906091039 17 0 0.0 4.8 0.00 0.00 0.00 95 1018.3
20260906090539 17 0 0.0 4.8 0.00 0.00 0.00 95 1018.2
20260906090049 17 0 0.0 4.8 0.00 0.00 0.00 95 1018.3
20260906085542 17 0 0.0 3.2 0.00 0.00 0.00 95 1018.3
20260906085041 17 0 0.0 4.8 0.00 0.00 0.00 95 1018.3
20260906084558 17 65 0.0 4.8 0.00 0.00 0.00 95 1018.2
20260906084041 17 0 0.0 3.2 0.00 0.00 0.00 95 1018.1
20260906083539 17 64 0.0 3.2 0.00 0.00 0.00 95 1018.2
20260906083053 17 0 0.0 3.2 0.00 0.00 0.00 95 1018.2
20260906082539 17 0 0.0 0.0 0.00 0.00 0.00 95 1018.1
20260906082043 17 0 0.0 0.0 0.00 0.00 0.00 95 1018.2
20260906081551 17 0 0.0 0.0 0.00 0.00 0.00 95 1018.2
20260906081036 17 0 0.0 0.0 0.00 0.00 0.00 95 1018.1
20260906080539 17 0 0.0 0.0 0.00 0.00 0.00 95 1018.2
20260906080048 17 0 0.0 0.0 0.00 0.00 0.00 95 1018.1
20260906075537 17 0 0.0 0.0 0.00 0.00 0.00 95 1018.1
20260906075036 17 0 0.0 0.0 0.00 0.00 0.00 95 1018.1
20260906074556 17 0 0.0 0.0 0.00 0.00 0.00 95 1018.2
20260906074037 17 0 0.0 0.0 0.00 0.00 0.00 95 1018.2
20260906073536 17 0 0.0 3.2 0.00 0.00 0.00 95 1018.1
20260906073057 17 0 0.0 3.2 0.00 0.00 0.00 95 1018.2
20260906072535 17 0 0.0 3.2 0.00 0.00 0.00 95 1018.2
20260906072037 17 0 0.0 1.6 0.00 0.00 0.00 95 1018.3
20260906071552 17 0 0.0 0.0 0.00 0.00 0.00 95 1018.2
20260906071037 17 0 0.0 1.6 0.00 0.00 0.00 95 1018.4
20260906070536 17 0 0.0 1.6 0.00 0.00 0.00 95 1018.3
20260906070101 17 69 0.0 1.6 0.00 0.00 0.00 95 1018.3
20260906065539 17 0 0.0 1.6 0.00 0.00 0.00 95 1018.4
20260906065038 17 0 0.0 1.6 0.00 0.00 0.00 95 1018.4
20260906064554 18 0 0.0 1.6 0.00 0.00 0.00 95 1018.4
20260906064038 18 0 0.0 1.6 0.00 0.00 0.00 95 1018.4
20260906063537 18 0 0.0 1.6 0.00 0.00 0.00 95 1018.4
20260906063100 18 0 0.0 1.6 0.00 0.00 0.00 95 1018.5
20260906062539 18 0 0.0 1.6 0.00 0.00 0.00 95 1018.6
20260906062039 18 0 0.0 1.6 0.00 0.00 0.00 95 1018.5
20260906061555 18 0 0.0 1.6 0.00 0.00 0.00 95 1018.5
20260906061038 18 0 0.0 0.0 0.00 0.00 0.00 95 1018.5
20260906060537 18 0 0.0 0.0 0.00 0.00 0.00 95 1018.4
20260906060056 18 0 0.0 1.6 0.00 0.00 0.00 95 1018.4
20260906055537 18 0 0.0 1.6 0.00 0.00 0.00 95 1018.3
20260906055039 18 0 0.0 1.6 0.00 0.00 0.00 94 1018.3
20260906054550 18 0 0.0 1.6 0.00 0.00 0.00 95 1018.2
20260906054039 18 0 0.0 1.6 0.00 0.00 0.00 95 1018.3
20260906053539 18 0 0.0 1.6 0.00 0.00 0.00 95 1018.3
20260906053106 18 0 0.0 0.0 0.00 0.00 0.00 94 1018.3
20260906052539 18 0 0.0 0.0 0.00 0.00 0.00 94 1018.2
20260906052039 18 0 0.0 0.0 0.00 0.00 0.00 94 1018.3
20260906051559 18 0 0.0 0.0 0.00 0.00 0.00 95 1018.2
20260906051035 18 0 0.0 3.2 0.00 0.00 0.00 95 1018.2
20260906050542 18 0 0.0 3.2 0.00 0.00 0.00 95 1018.1
20260906050055 19 71 0.0 3.2 0.00 0.00 0.00 95 1018.1
20260906045539 18 0 0.0 3.2 0.00 0.00 0.00 95 1018.1
20260906045039 18 0 0.0 3.2 0.00 0.00 0.00 95 1018.0
20260906044548 18 31 0.0 0.0 0.00 0.00 0.00 95 1018.0
20260906044039 19 0 0.0 0.0 0.00 0.00 0.00 94 1018.1
20260906043538 19 0 0.0 0.0 0.00 0.00 0.00 94 1018.0
20260906043101 19 0 0.0 0.0 0.00 0.00 0.00 94 1017.9
20260906042535 19 0 0.0 0.0 0.00 0.00 0.00 94 1017.8
20260906042039 19 0 0.0 0.0 0.00 0.00 0.00 94 1017.7
20260906041559 19 0 0.0 0.0 0.00 0.00 0.00 94 1017.6
20260906041039 19 0 0.0 0.0 0.00 0.00 0.00 94 1017.6
20260906040543 19 0 0.0 0.0 0.00 0.00 0.00 93 1017.5
20260906040050 19 0 0.0 0.0 0.00 0.00 0.00 93 1017.5
20260906035537 19 0 0.0 0.0 0.00 0.00 0.00 93 1017.5
20260906035036 20 0 0.0 0.0 0.00 0.00 0.00 93 1017.5
20260906034601 20 0 0.0 0.0 0.00 0.00 0.00 93 1017.5
20260906034039 20 0 0.0 0.0 0.00 0.00 0.00 93 1017.6
20260906033535 20 0 0.0 0.0 0.00 0.00 0.00 93 1017.7
20260906033108 20 0 0.0 0.0 0.00 0.00 0.00 93 1017.7
20260906032539 20 0 0.0 0.0 0.00 0.00 0.00 93 1017.6
20260906032040 20 0 0.0 0.0 0.00 0.00 0.00 93 1017.6
20260906031547 20 0 0.0 3.2 0.00 0.00 0.00 93 1017.6
20260906031039 20 0 0.0 3.2 0.00 0.00 0.00 93 1017.4
20260906030539 20 80 0.0 3.2 0.00 0.00 0.00 93 1017.4
20260906030056 20 97 0.0 3.2 0.00 0.00 0.00 92 1017.5
20260906025535 20 102 0.0 4.8 0.00 0.00 0.00 92 1017.3
20260906025036 20 0 1.6 4.8 0.00 0.00 0.00 93 1017.2
20260906024557 20 0 1.6 4.8 0.00 0.00 0.00 92 1017.2
20260906024038 20 53 1.6 4.8 0.00 0.00 0.00 92 1017.1
20260906023544 20 107 1.6 4.8 0.00 0.00 0.00 92 1017.0
20260906023053 20 109 1.6 4.8 0.00 0.00 0.00 92 1016.9
20260906022539 20 84 1.6 4.8 0.00 0.00 0.00 92 1016.8
20260906022043 20 107 1.6 4.8 0.00 0.00 0.00 92 1016.7
20260906021605 21 109 1.6 4.8 0.00 0.00 0.00 92 1016.8
20260906021039 21 0 1.6 4.8 0.00 0.00 0.00 92 1016.7
20260906020539 21 115 1.6 3.2 0.00 0.00 0.00 92 1016.7
20260906020106 21 96 1.6 6.4 0.00 0.00 0.00 92 1016.8
20260906015539 21 0 1.6 6.4 0.00 0.00 0.00 91 1016.9
20260906015038 21 105 3.2 6.4 0.00 0.00 0.00 91 1016.7
20260906014556 21 111 1.6 4.8 0.00 0.00 0.00 91 1016.7
20260906014040 21 103 1.6 4.8 0.00 0.00 0.00 91 1016.7
20260906013540 21 123 1.6 4.8 0.00 0.00 0.00 91 1016.7
20260906013110 21 96 1.6 6.4 0.00 0.00 0.00 90 1016.7
20260906012542 21 105 1.6 6.4 0.00 0.00 0.00 90 1016.6
20260906012036 21 113 1.6 6.4 0.00 0.00 0.00 89 1016.5
20260906011605 22 99 1.6 3.2 0.00 0.00 0.00 89 1016.5
20260906011038 22 108 0.0 3.2 0.00 0.00 0.00 88 1016.5
20260906010539 22 108 1.6 3.2 0.00 0.00 0.00 88 1016.6
20260906010059 22 0 0.0 4.8 0.00 0.00 0.00 88 1016.6
20260906005539 22 98 0.0 4.8 0.00 0.00 0.00 87 1016.6
20260906005039 22 98 0.0 4.8 0.00 0.00 0.00 87 1016.5
20260906004556 22 119 0.0 6.4 0.00 0.00 0.00 87 1016.5
20260906004041 22 99 1.6 6.4 0.00 0.00 0.00 86 1016.3
20260906003539 22 0 1.6 8.0 0.00 0.00 0.00 86 1016.3
20260906003103 23 106 1.6 8.0 0.00 0.00 0.00 86 1016.2
20260906002540 23 92 1.6 8.0 0.00 0.00 0.00 86 1016.2
20260906002037 23 121 1.6 4.8 0.00 0.00 0.00 86 1016.2
20260906001555 23 117 1.6 4.8 0.00 0.00 0.00 86 1016.2
20260906001038 23 0 0.0 4.8 0.00 0.00 0.00 86 1016.3
20260906000539 23 110 1.6 4.8 0.00 0.00 0.00 85 1016.3
20260906000059 23 104 1.6 6.4 0.00 0.00 0.00 85 1016.3
20260905235539 23 64 1.6 8.0 0.00 0.00 0.00 84 1016.4
20260905235037 23 0 1.6 8.0 0.00 0.00 0.00 84 1016.5
20260905234551 24 111 1.6 6.4 0.00 0.00 0.00 83 1016.5
20260905234037 24 91 1.6 4.8 0.00 0.00 0.00 83 1016.4
20260905233537 24 92 0.0 9.7 0.00 0.00 0.00 83 1016.4
20260905233057 24 63 3.2 9.7 0.00 0.00 0.00 83 1016.4
20260905232538 25 132 3.2 9.7 0.00 0.00 0.00 82 1016.4
20260905232039 25 0 3.2 9.7 0.00 0.00 0.00 82 1016.2
20260905231554 25 105 1.6 8.0 0.00 0.00 0.00 83 1016.2
20260905231039 25 47 1.6 12.9 0.00 0.00 0.00 82 1016.2
20260905230537 25 115 3.2 12.9 0.00 0.00 0.00 81 1016.1
20260905230051 25 67 3.2 12.9 0.00 0.00 0.00 80 1016.2
20260905225543 25 71 1.6 16.1 0.00 0.00 0.00 80 1016.3
20260905225036 25 131 3.2 16.1 0.00 0.00 0.00 80 1016.1
20260905224556 25 62 4.8 16.1 0.00 0.00 0.00 80 1016.1
20260905224037 26 68 3.2 12.9 0.00 0.00 0.00 80 1015.8
20260905223537 26 70 3.2 12.9 0.00 0.00 0.00 80 1015.8
20260905223134 26 31 4.8 12.9 0.00 0.00 0.00 79 1015.8
20260905222541 26 65 1.6 12.9 0.00 0.00 0.00 79 1015.7
20260905222038 26 37 3.2 12.9 0.00 0.00 0.00 78 1015.8
20260905221552 26 19 3.2 12.9 0.00 0.00 0.00 78 1015.8
20260905221039 26 73 1.6 14.5 0.00 0.00 0.00 78 1015.9
20260905220536 26 92 1.6 16.1 0.00 0.00 0.00 78 1015.8
20260905220059 27 69 6.4 16.1 0.00 0.00 0.00 76 1015.7
20260905215537 27 43 3.2 12.9 0.00 0.00 0.00 76 1015.7
20260905215038 27 96 4.8 12.9 0.00 0.00 0.00 76 1015.7
20260905214555 26 55 1.6 11.3 0.00 0.00 0.00 76 1015.7
20260905214040 27 0 1.6 11.3 0.00 0.00 0.00 76 1015.7
20260905213539 27 65 1.6 12.9 0.00 0.00 0.00 75 1015.7
20260905213050 27 344 3.2 12.9 0.00 0.00 0.00 77 1015.7
20260905212537 27 336 3.2 12.9 0.00 0.00 0.00 75 1015.7
20260905212036 27 27 3.2 12.9 0.00 0.00 0.00 77 1015.8
20260905211551 27 76 3.2 14.5 0.00 0.00 0.00 76 1015.8
20260905211037 27 350 4.8 16.1 0.00 0.00 0.00 75 1015.8
20260905210539 27 344 6.4 16.1 0.00 0.00 0.00 76 1015.8
20260905210110 27 32 4.8 16.1 0.00 0.00 0.00 76 1015.8
20260905205539 27 248 4.8 14.5 0.00 0.00 0.00 77 1015.9
20260905205038 27 330 3.2 16.1 0.00 0.00 0.00 79 1016.0
20260905204558 26 290 6.4 16.1 0.00 0.00 0.00 78 1015.8
20260905204036 26 10 4.8 14.5 0.00 0.00 0.00 78 1015.8
20260905203537 26 39 4.8 14.5 0.00 0.00 0.00 79 1015.8
20260905203047 26 315 1.6 14.5 0.00 0.00 0.00 81 1015.8
20260905202536 26 352 6.4 16.1 0.00 0.00 0.00 82 1015.8
20260905202037 25 352 3.2 16.1 0.00 0.00 0.00 82 1015.9
20260905201546 25 30 3.2 16.1 0.00 0.00 0.00 82 1015.9
20260905201039 25 24 1.6 9.7 0.00 0.00 0.00 83 1016.0
20260905200539 25 54 3.2 8.0 0.00 0.00 0.00 81 1016.0
20260905200058 25 61 1.6 8.0 0.00 0.00 0.00 81 1016.0
20260905195540 25 0 1.6 8.0 0.00 0.00 0.00 82 1016.0
20260905195039 25 334 4.8 12.9 0.00 0.00 0.00 82 1016.1
20260905194607 25 23 1.6 12.9 0.00 0.00 0.00 81 1016.0
20260905194039 25 19 3.2 12.9 0.00 0.00 0.00 80 1016.0
20260905193538 25 56 1.6 14.5 0.00 0.00 0.00 81 1016.0
20260905193049 26 28 4.8 14.5 0.00 0.00 0.00 82 1016.0
20260905192540 25 67 1.6 8.0 0.00 0.00 0.00 83 1016.0
20260905192044 25 78 1.6 12.9 0.00 0.00 0.00 83 1016.1
20260905191559 25 61 3.2 12.9 0.00 0.00 0.00 83 1016.2
20260905191039 25 80 3.2 9.7 0.00 0.00 0.00 84 1016.3
20260905190543 25 360 1.6 9.7 0.00 0.00 0.00 84 1016.3
20260905190053 25 107 1.6 9.7 0.00 0.00 0.00 84 1016.3
20260905185539 25 85 1.6 11.3 0.00 0.00 0.00 85 1016.2
20260905185039 25 69 3.2 11.3 0.00 0.00 0.00 87 1016.2
20260905184611 24 0 3.2 12.9 0.00 0.00 0.00 87 1016.3
20260905184039 24 5 3.2 12.9 0.00 0.00 0.00 86 1016.4
20260905183540 24 360 1.6 12.9 0.00 0.00 0.00 87 1016.4
20260905183058 24 360 1.6 9.7 0.00 0.00 0.00 87 1016.4
20260905182539 24 124 1.6 9.7 0.00 0.00 0.00 88 1016.4
20260905182039 23 91 1.6 8.0 0.00 0.00 0.00 89 1016.5
20260905181559 23 38 1.6 8.0 0.00 0.00 0.00 90 1016.5
20260905181040 23 352 1.6 6.4 0.00 0.00 0.00 91 1016.5
20260905180539 23 323 1.6 12.9 0.00 0.00 0.00 91 1016.5
20260905180051 23 329 1.6 12.9 0.00 0.00 0.00 91 1016.6
20260905175539 23 331 1.6 6.4 0.00 0.00 0.00 91 1016.6
20260905175039 23 20 1.6 6.4 0.00 0.00 0.00 91 1016.6
20260905174547 23 38 1.6 6.4 0.00 0.00 0.00 91 1016.7
20260905174036 23 63 1.6 8.0 0.00 0.00 0.00 91 1016.6
20260905173536 23 112 0.0 8.0 0.00 0.00 0.00 92 1016.7
20260905173101 23 114 1.6 6.4 0.00 0.00 0.00 91 1016.7
20260905172540 23 65 3.2 8.0 0.00 0.00 0.00 91 1016.8
20260905172041 23 0 1.6 8.0 0.00 0.00 0.00 91 1016.7
20260905171555 23 34 3.2 8.0 0.00 0.00 0.00 91 1016.7
20260905171039 23 0 1.6 11.3 0.00 0.00 0.00 92 1016.7
20260905170539 23 72 0.0 11.3 0.00 0.00 0.00 92 1016.7
20260905170058 23 0 0.0 9.7 0.00 0.00 0.00 92 1016.7
20260905165537 23 0 1.6 9.7 0.00 0.00 0.00 92 1016.7
20260905165036 23 38 0.0 6.4 0.00 0.00 0.00 92 1016.8
20260905164556 23 71 1.6 6.4 0.00 0.00 0.00 92 1016.7
20260905164040 22 360 0.0 6.4 0.00 0.00 0.00 92 1016.7
20260905163536 22 0 0.0 4.8 0.00 0.00 0.00 92 1016.6
20260905163058 22 67 1.6 6.4 0.00 0.00 0.00 92 1016.6
20260905162540 22 115 1.6 6.4 0.00 0.00 0.00 92 1016.6
20260905162038 22 325 0.0 11.3 0.00 0.00 0.00 92 1016.6
20260905161548 22 26 1.6 11.3 0.00 0.00 0.00 92 1016.6
20260905161036 22 117 0.0 6.4 0.00 0.00 0.00 93 1016.5
20260905160540 22 101 1.6 6.4 0.00 0.00 0.00 93 1016.5
20260905160056 22 86 0.0 4.8 0.00 0.00 0.00 93 1016.6
20260905155540 22 117 0.0 4.8 0.00 0.05 0.00 93 1016.5
20260905155039 22 16 1.6 4.8 0.00 0.05 0.00 93 1016.4
20260905154613 22 83 0.0 8.0 0.00 0.05 0.00 93 1016.4
20260905154039 22 107 1.6 8.0 0.00 0.05 0.00 93 1016.4
20260905153543 22 74 1.6 8.0 0.00 0.05 0.00 93 1016.4
20260905153052 22 32 1.6 8.0 0.00 0.05 0.00 94 1016.5
20260905152539 22 64 0.0 8.0 0.00 0.05 0.00 94 1016.4
20260905152043 22 92 3.2 8.0 0.00 0.05 0.00 94 1016.4
20260905151550 22 0 1.6 8.0 0.00 0.05 0.00 94 1016.3
20260905151038 22 0 0.0 6.4 0.00 0.05 0.00 95 1016.3
20260905150540 22 63 0.0 8.0 0.00 0.05 0.00 95 1016.2
20260905150055 22 86 1.6 8.0 0.00 0.05 0.00 95 1016.2
20260905145539 22 62 0.0 4.8 0.00 0.08 0.00 94 1016.1
20260905145036 22 0 1.6 6.4 0.00 0.08 0.00 95 1015.9
20260905144557 22 113 1.6 6.4 0.00 0.08 0.00 95 1015.9
20260905144042 21 107 3.2 6.4 0.00 0.08 0.00 95 1015.8
20260905143540 21 98 0.0 3.2 0.00 0.08 0.00 96 1015.8
20260905143052 21 71 0.0 4.8 0.00 0.08 0.00 96 1015.8